Content
SEND FEEDBACK

Daily
Averages
Monthly
Summary
United States of America

COCHRANE, WISCONSIN


Home > North America > United States > Wisconsin
Elevation: 241 meters     Latitude: 44 19N     Longitude: 091 55W

WEATHER
 
SELECT A DAY
Number of Records: 458,236;   Date Range: 1/1/95 - 9/3/14
 
SHARE

PRINT THIS DATA

[ ← Previous Day ]
WEATHER ALMANAC - 31 JANUARY, 2013
[ Next Day → ]
[ °F ]   °C
Weather ElementAverageHighLow
Temperature-13.8 °C-10 °C (12:34 am)-18 °C (9:54 pm)
Dewpoint-18.6 °C-13 °C (1:14 am)-23 °C (9:54 pm)
Humidity68.3 %79 % (1:14 am)62 % (12:34 am)
Barometer1014.9 hPa1024 hPa (11:35 pm)1006.4 hPa (12:34 am)
Wind Speed20.4 km/h33.3 km/h (3:54 pm)
Wind Gust46.3 km/h (3:15 pm)
Weather ElementAverage
Visibility11.6 km
Wind DirectionWNW (300.6 °)

Weather ElementTotal
Precipitation---
Heating Degree Days32.3 (Base 18.3)
Averaged from 70 records on 31 January, 2013
WEATHER CONDITIONS BREAKOUT
WIND DIRECTION BREAKOUT
WEATHER BY HOUR - 31 JANUARY, 2013
[ °F ]   °C
Local TimeTemperatureDewpointHumidityBarometerVisibilityWind DirectionWind SpeedGust SpeedPrecipitationEventsConditions
12:34 AM-10 °C-16 °C62 %1006.4 hPa16.1 kmNW (310°)18.5 km/hOvercast
12:55 AM-10 °C-15 °C67 %1006.4 hPa16.1 kmWNW (300°)9.3 km/hOvercast
1:14 AM-10 °C-13 °C79 %1006.8 hPa8 kmWNW (300°)9.3 km/hSnowLight Snow
1:35 AM-10 °C-15 °C67 %1006.8 hPa11.3 kmNW (310°)24.1 km/h33.3 km/hOvercast
1:55 AM-10 °C-14 °C73 %1007.1 hPa8 kmWNW (300°)20.4 km/h27.8 km/hHaze
2:14 AM-10 °C-15 °C67 %1007.5 hPa11.3 kmWNW (300°)20.4 km/h29.6 km/hOvercast
2:35 AM-10 °C-15 °C67 %1007.5 hPa11.3 kmWNW (300°)18.5 km/h27.8 km/hOvercast
2:54 AM-10 °C-15 °C67 %1007.5 hPa11.3 kmWNW (300°)22.2 km/h33.3 km/hOvercast
3:15 AM-12 °C-16 °C73 %1007.5 hPa16.1 kmWNW (300°)22.2 km/hOvercast
3:35 AM-12 °C-16 °C73 %1007.8 hPa11.3 kmWNW (300°)22.2 km/h38.9 km/hOvercast
3:54 AM-12 °C-16 °C73 %1008.1 hPa16.1 kmWNW (300°)16.7 km/h31.5 km/hMostly Cloudy
4:15 AM-12 °C-17 °C67 %1008.1 hPa16.1 kmWNW (300°)24.1 km/h29.6 km/hScattered Clouds
4:35 AM-13 °C-17 °C73 %1008.5 hPa16.1 kmWNW (300°)20.4 km/h29.6 km/hMostly Cloudy
4:54 AM-13 °C-18 °C67 %1008.8 hPa16.1 kmNW (310°)22.2 km/h33.3 km/hMostly Cloudy
5:15 AM-13 °C-17 °C73 %1009.1 hPa16.1 kmNW (310°)20.4 km/hMostly Cloudy
5:35 AM-13 °C-17 °C73 %1009.1 hPa16.1 kmWNW (300°)11.1 km/hMostly Cloudy
5:54 AM-13 °C-17 °C73 %1009.1 hPa8 kmNW (320°)13 km/hHaze
6:15 AM-13 °C-17 °C73 %1009.5 hPa16.1 kmNW (310°)16.7 km/h27.8 km/hOvercast
6:35 AM-13 °C-18 °C67 %1009.8 hPa16.1 kmWNW (300°)20.4 km/h31.5 km/hOvercast
6:54 AM-13 °C-17 °C73 %1010.5 hPa16.1 kmWNW (300°)16.7 km/hOvercast
7:15 AM-13 °C-18 °C67 %1010.5 hPa16.1 kmWNW (300°)24.1 km/h35.2 km/hOvercast
7:35 AM-13 °C-17 °C73 %1010.8 hPa11.3 kmWNW (300°)18.5 km/hOvercast
7:54 AM-13 °C-17 °C73 %1011.2 hPa4.8 kmWest (280°)18.5 km/h25.9 km/hHaze
8:15 AM-13 °C-17 °C73 %1011.5 hPa6.4 kmWNW (300°)16.7 km/hHaze
8:35 AM-13 °C-17 °C73 %1011.9 hPa11.3 kmWNW (300°)24.1 km/h31.5 km/hOvercast
8:55 AM-13 °C-18 °C67 %1012.2 hPa11.3 kmWNW (300°)24.1 km/h33.3 km/hOvercast
9:19 AM-13 °C-17 °C73 %1012.5 hPa6.4 kmWNW (300°)16.7 km/h31.5 km/hHaze
9:35 AM-13 °C-17 °C73 %1012.5 hPa4.8 kmWNW (300°)24.1 km/h37 km/hHaze
9:55 AM-13 °C-18 °C67 %1013.2 hPa8 kmWNW (300°)20.4 km/h35.2 km/hHaze
10:14 AM-13 °C-18 °C67 %1013.2 hPa6.4 kmWNW (300°)24.1 km/h38.9 km/hHaze
10:35 AM-13 °C-18 °C67 %1013.5 hPa16.1 kmWNW (300°)22.2 km/h29.6 km/hOvercast
10:55 AM-13 °C-18 °C67 %1013.9 hPa4.8 kmWNW (300°)20.4 km/h31.5 km/hHaze
11:14 AM-13 °C-18 °C67 %1013.9 hPa8 kmWNW (300°)25.9 km/h33.3 km/hHaze
11:35 AM-13 °C-18 °C67 %1014.2 hPa3.2 kmWNW (300°)20.4 km/h35.2 km/hHaze
11:55 AM-13 °C-18 °C67 %1014.6 hPa3.2 kmNW (310°)25.9 km/hHaze
12:14 PM-13 °C-19 °C62 %1014.6 hPa11.3 kmWNW (300°)24.1 km/h33.3 km/hOvercast
12:35 PM-13 °C-18 °C67 %1014.9 hPa4.8 kmWNW (300°)24.1 km/h33.3 km/hHaze
12:55 PM-13 °C-18 °C67 %1014.9 hPa4.8 kmWNW (300°)18.5 km/hHaze
1:14 PM-13 °C-19 °C62 %1014.9 hPa11.3 kmWNW (300°)24.1 km/h38.9 km/hOvercast
1:35 PM-13 °C-19 °C62 %1015.2 hPa6.4 kmWNW (300°)24.1 km/h33.3 km/hHaze
1:55 PM-13 °C-18 °C67 %1015.6 hPa4 kmWNW (300°)22.2 km/h31.5 km/hHaze
2:14 PM-13 °C-18 °C67 %1015.6 hPa3.2 kmWNW (290°)22.2 km/h27.8 km/hHaze
2:35 PM-13 °C-18 °C67 %1016.3 hPa4.8 kmWNW (300°)29.6 km/h38.9 km/hHaze
2:54 PM-13 °C-18 °C67 %1016.6 hPa4.8 kmWNW (300°)22.2 km/h35.2 km/hHaze
3:15 PM-13 °C-18 °C67 %1016.6 hPa4.8 kmNW (310°)18.5 km/h46.3 km/hHaze
3:35 PM-13 °C-17 °C73 %1017.3 hPa2.9 kmWNW (300°)27.8 km/h40.7 km/hHaze
3:54 PM-13 °C-18 °C67 %1017.6 hPa8 kmNW (310°)33.3 km/h40.7 km/hHaze
4:15 PM-15 °C-20 °C66 %1017.9 hPa8 kmNW (310°)29.6 km/h35.2 km/hHaze
4:35 PM-15 °C-20 °C66 %1018.3 hPa16.1 kmNW (310°)25.9 km/h38.9 km/hOvercast
4:54 PM-15 °C-19 °C72 %1018.6 hPa4 kmWNW (300°)24.1 km/h29.6 km/hHaze
5:15 PM-15 °C-20 °C66 %1019 hPa16.1 kmWNW (300°)20.4 km/hOvercast
5:35 PM-15 °C-20 °C66 %1019.6 hPa16.1 kmWNW (300°)22.2 km/h29.6 km/hMostly Cloudy
5:54 PM-15 °C-20 °C66 %1020 hPa16.1 kmWNW (300°)20.4 km/h33.3 km/hScattered Clouds
6:15 PM-16 °C-20 °C72 %1020 hPa16.1 kmWNW (300°)14.8 km/hMostly Cloudy
6:35 PM-16 °C-20 °C72 %1020.7 hPa11.3 kmWNW (300°)20.4 km/h25.9 km/hOvercast
6:54 PM-16 °C-21 °C66 %1020.7 hPa16.1 kmWNW (300°)20.4 km/h33.3 km/hMostly Cloudy
7:15 PM-16 °C-21 °C66 %1021 hPa16.1 kmNW (310°)20.4 km/h29.6 km/hClear
7:35 PM-17 °C-22 °C66 %1021.3 hPa16.1 kmWNW (300°)20.4 km/h31.5 km/hClear
8:15 PM-17 °C-22 °C66 %1021.7 hPa16.1 kmWNW (300°)14.8 km/hClear
8:35 PM-17 °C-22 °C66 %1022 hPa16.1 kmWNW (300°)16.7 km/h29.6 km/hClear
8:54 PM-17 °C-22 °C66 %1022.4 hPa16.1 kmWNW (290°)20.4 km/h29.6 km/hClear
9:15 PM-17 °C-22 °C66 %1022.4 hPa16.1 kmWNW (300°)20.4 km/h29.6 km/hClear
9:35 PM-17 °C-22 °C66 %1022.7 hPa16.1 kmWNW (290°)16.7 km/hClear
9:54 PM-18 °C-23 °C66 %1023 hPa16.1 kmWNW (290°)16.7 km/h25.9 km/hClear
10:15 PM-18 °C-23 °C66 %1023.4 hPa16.1 kmWNW (300°)14.8 km/h29.6 km/hClear
10:35 PM-18 °C-23 °C66 %1023.4 hPa16.1 kmWNW (290°)20.4 km/h27.8 km/hClear
10:54 PM-18 °C-23 °C66 %1023.4 hPa16.1 kmWNW (300°)14.8 km/hClear
11:15 PM-18 °C-23 °C66 %1023.7 hPa16.1 kmWNW (290°)18.5 km/h27.8 km/hClear
11:35 PM-18 °C-23 °C66 %1024 hPa16.1 kmWNW (290°)16.7 km/h25.9 km/hClear
11:54 PM-18 °C-23 °C66 %1024 hPa16.1 kmWNW (300°)13 km/hClear
Hourly data recorded from KONA, located 0 kilometers away from Cochrane, Wisconsin







STORIES FROM OUR PARTNERS